GFSSE_sfc_dewp_159.txt.gz
Dewpoint
70 72 74 73 73 73 73 72 71 71 73 72 72 73 74 73 74 74 73 73 73 73 73 73 72 71 71 70 70 71 71 72 72 72 72 72 72 71 70 70 69 66 72
70 71 74 73 73 72 73 72 71 70 71 72 72 72 73 73 73 73 73 73 72 72 73 73 72 72 72 71 70 71 71 71 72 72 72 72 72 70 69 71 71 69 71
70 71 71 75 74 73 73 73 72 71 70 70 71 72 72 73 73 73 72 72 72 73 73 73 72 72 71 71 71 71 71 72 72 72 72 69 70 72 69 70 72 71 71
70 71 69 75 75 74 73 73 72 71 70 71 71 71 72 72 73 73 72 72 72 73 73 73 72 71 71 71 70 70 71 71 71 70 67 67 68 71 71 69 70 70 71
70 70 70 76 75 75 74 73 72 71 69 72 70 71 71 72 73 72 72 72 72 73 73 72 72 71 71 70 69 70 71 71 70 69 68 70 69 70 71 70 69 70 71
71 71 72 76 76 75 74 74 73 72 70 72 71 71 72 72 72 72 71 72 72 72 72 72 72 71 70 70 70 70 70 69 69 68 69 69 69 71 71 70 70 71 70
71 71 70 75 75 75 75 74 73 72 71 71 71 72 72 72 72 71 72 72 72 72 72 72 71 70 69 69 68 68 69 69 66 67 68 68 69 70 70 70 70 70 69
71 71 70 74 75 74 74 74 73 71 70 70 71 72 72 72 72 71 72 72 72 72 72 71 70 70 69 68 67 67 68 67 66 66 67 67 69 69 69 69 69 69 69
72 72 72 73 72 74 74 74 73 71 71 70 71 72 72 72 71 72 72 72 71 72 71 71 70 70 68 68 67 66 67 66 64 65 65 65 69 68 69 69 69 69 69
72 72 72 73 72 72 73 74 73 73 73 72 72 72 73 73 72 72 72 71 71 71 71 70 70 69 68 67 66 65 66 66 64 65 64 66 68 68 68 68 68 68 68
71 72 72 72 72 72 72 73 74 73 72 72 72 72 71 71 71 70 71 72 71 71 70 70 69 68 67 66 65 64 63 61 62 62 63 68 67 67 67 67 67 67 67
70 71 72 71 72 72 71 72 72 71 71 70 71 70 70 70 70 70 70 72 71 71 70 69 69 67 65 61 61 61 58 59 59 61 62 67 65 65 65 65 64 64 64
68 70 71 71 71 71 71 72 72 72 72 71 70 71 71 71 71 70 70 70 70 70 70 69 66 63 61 59 58 57 57 57 58 59 63 65 63 63 62 62 62 63 62
63 67 70 70 70 71 71 71 71 70 70 70 70 70 70 69 70 70 70 70 70 70 69 67 64 62 59 57 56 56 56 56 57 58 61 64 63 62 64 64 64 64 64
60 65 67 69 69 70 70 69 69 68 69 69 69 69 69 68 68 68 68 68 69 69 68 67 64 60 57 57 56 55 55 55 55 57 60 64 65 65 65 64 64 63 62
60 62 65 66 68 69 69 67 67 68 68 68 68 68 67 68 67 67 66 67 67 68 67 64 63 60 57 56 56 55 55 55 55 59 59 63 65 65 64 64 63 62 60
54 58 61 64 67 68 68 67 67 67 68 67 67 66 65 66 66 66 66 66 67 67 66 64 61 59 57 56 55 55 56 55 56 58 61 63 63 65 64 62 61 61 60
45 45 46 48 62 66 67 66 66 66 67 66 67 66 65 64 64 64 64 64 65 65 65 64 61 59 59 56 55 55 55 55 57 58 60 61 62 62 62 63 61 60 60
45 47 48 50 50 63 66 66 65 65 65 66 66 66 65 65 63 62 63 64 64 64 64 63 61 60 58 57 56 56 56 55 57 58 58 59 60 61 60 62 62 61 59
54 54 54 55 54 52 62 65 64 64 64 65 65 65 65 65 64 62 63 63 63 63 62 62 60 60 58 58 57 55 56 56 57 58 57 58 59 59 59 59 59 58 60
54 55 55 55 55 53 55 61 62 61 62 62 64 65 65 64 64 63 62 63 63 61 62 61 60 58 58 57 56 56 55 54 56 56 57 57 58 58 58 58 57 57 57
54 56 57 57 57 53 55 58 61 62 62 63 62 63 64 63 63 62 62 62 62 62 60 60 59 59 58 58 56 55 53 54 54 55 56 56 56 56 56 56 56 56 57
55 57 58 58 58 54 54 57 60 61 61 61 60 61 62 63 62 62 62 62 61 62 60 60 59 59 56 58 57 55 52 48 53 52 54 55 55 55 55 55 55 54 54
56 58 58 58 58 57 54 56 56 55 57 60 60 62 61 61 61 62 60 59 60 61 61 60 60 59 58 56 57 53 53 53 48 50 51 52 53 53 54 54 53 52 52
57 58 58 58 58 56 57 56 57 57 58 60 59 60 60 61 61 62 61 61 61 61 60 60 59 59 58 57 56 52 51 50 51 50 48 50 50 51 51 51 52 51 50
57 58 57 57 58 57 57 58 58 58 57 58 58 58 59 60 61 60 61 61 61 61 60 60 59 59 58 58 57 54 51 51 49 50 49 49 50 48 48 48 49 49 50

GFSSE_sfc_dewp_162.txt.gz
Dewpoint
68 70 75 73 74 73 72 71 72 73 72 72 73 74 73 73 74 73 73 73 72 72 73 72 71 71 71 70 71 72 72 71 72 72 72 71 71 69 70 73 71 67 71
67 68 75 74 74 73 72 72 70 72 72 73 72 73 73 73 73 73 73 72 72 72 73 72 72 71 70 70 71 72 72 72 72 71 72 72 71 70 71 72 73 70 71
66 66 69 75 74 72 74 72 71 70 71 71 72 72 72 73 73 73 72 72 72 73 73 72 72 72 71 71 70 71 71 72 71 71 72 68 69 69 70 72 73 72 71
65 65 65 75 76 74 74 73 72 71 70 71 71 71 72 72 73 72 72 72 73 73 73 72 71 71 70 70 70 70 71 71 70 71 67 67 67 70 70 71 71 71 71
66 65 64 75 76 75 74 73 72 71 70 72 71 71 72 72 73 72 72 72 73 73 72 72 71 71 70 70 70 70 71 70 71 68 67 69 70 70 70 70 71 71 71
67 67 71 76 76 75 74 74 73 72 70 73 70 72 71 72 72 72 72 72 72 73 72 72 71 70 70 70 70 70 69 69 71 67 68 69 70 71 71 70 71 71 70
67 68 68 75 75 75 75 74 73 72 70 72 71 71 72 72 72 72 72 72 72 72 72 71 71 70 69 69 69 69 69 69 66 66 67 68 69 70 70 70 69 69 70
67 68 67 74 75 75 75 74 73 72 71 70 71 72 71 72 72 72 72 72 72 72 72 71 70 69 69 68 67 68 67 69 65 65 66 67 70 69 70 70 70 69 69
68 69 69 70 72 75 74 74 73 72 71 71 71 72 72 72 72 71 72 72 72 72 71 71 70 69 68 67 67 67 67 68 63 64 64 65 70 69 70 69 69 69 69
70 70 70 70 69 69 69 74 74 72 72 71 71 72 73 73 72 72 72 72 72 71 71 71 70 69 68 67 66 67 66 68 62 64 65 66 68 68 68 68 68 68 68
70 70 70 70 70 71 71 70 73 73 73 73 72 72 71 68 68 70 71 72 71 71 71 70 69 69 67 66 66 65 65 59 59 63 64 68 67 67 68 67 67 66 66
68 70 70 70 70 70 68 70 70 70 69 69 69 67 63 64 65 66 70 71 71 71 71 70 69 68 66 60 59 62 56 57 57 59 63 67 65 66 65 65 64 64 63
64 68 70 70 71 70 69 71 70 69 69 69 69 70 70 65 66 66 66 67 70 70 71 69 67 63 60 58 56 55 55 54 56 57 63 66 64 63 63 62 63 64 64
60 67 69 71 69 70 69 67 68 68 68 68 68 70 68 70 68 66 66 65 69 68 68 69 69 64 59 56 54 53 53 54 54 56 61 65 64 63 64 65 65 64 63
50 61 67 70 69 68 69 68 68 68 68 67 68 69 69 68 67 67 67 68 67 68 68 68 66 61 57 55 53 52 52 53 54 57 59 65 66 65 64 65 64 63 62
50 55 63 67 69 68 67 69 69 69 68 68 67 67 68 68 67 67 67 68 68 68 70 67 65 61 57 56 54 53 52 52 55 56 58 61 66 65 64 64 63 62 61
44 55 63 65 67 68 67 68 69 69 69 68 68 68 67 67 66 66 65 65 67 67 68 67 65 61 61 58 55 53 53 52 55 56 58 62 62 65 64 63 62 62 61
42 54 59 61 63 65 65 68 67 67 67 66 66 67 66 66 66 66 65 65 67 68 67 66 63 62 61 58 55 56 53 53 55 56 60 62 61 60 63 63 61 60 61
42 48 52 52 53 62 64 67 66 66 66 66 65 66 65 65 65 66 65 65 65 65 65 65 64 62 59 59 58 59 57 54 57 59 59 60 61 61 60 63 62 62 60
46 47 50 50 50 52 59 65 65 65 65 65 64 64 65 64 64 64 64 64 64 64 64 64 63 63 61 59 59 58 59 57 59 58 58 58 60 60 58 58 59 58 60
51 52 52 52 52 53 53 57 62 63 64 63 63 64 64 64 64 64 63 63 63 63 62 62 61 59 58 58 58 57 57 56 57 58 59 58 58 56 55 55 56 57 57
49 52 54 54 55 55 54 55 57 58 62 62 63 63 64 63 63 63 63 63 63 62 61 61 59 58 57 58 57 56 54 55 56 57 58 56 54 55 54 53 52 53 54
50 53 53 55 56 56 55 56 58 59 60 62 62 60 61 63 63 62 62 62 63 62 61 61 60 58 56 58 58 57 53 52 54 56 57 55 54 53 52 52 52 52 53
53 56 57 57 56 56 55 55 56 54 54 57 59 61 61 61 61 61 62 62 62 62 61 61 61 60 58 56 57 56 54 53 51 51 54 54 54 51 51 53 52 51 51
56 57 58 58 58 58 57 56 55 54 55 57 60 61 62 61 61 61 61 61 60 59 60 61 60 60 59 58 57 54 54 53 48 46 48 52 53 51 51 52 52 51 50
57 58 59 59 58 58 57 57 57 57 57 57 59 59 61 61 60 61 61 60 59 57 58 60 60 60 60 59 57 55 54 54 51 49 46 48 48 50 51 52 52 51 52

GFSSE_sfc_dewp_168.txt.gz
Dewpoint
70 71 75 73 72 73 72 73 73 74 74 74 74 74 74 73 74 73 73 72 72 73 72 71 71 70 72 70 70 71 72 72 71 70 71 73 73 73 72 72 73 70 71
69 70 75 74 73 72 72 72 73 72 73 74 74 73 73 74 74 73 73 72 72 73 72 72 71 71 70 70 70 71 72 71 72 71 72 72 73 73 72 72 73 71 72
66 68 73 75 74 72 71 72 72 73 72 72 72 73 73 73 73 73 72 72 72 73 72 72 71 70 70 70 70 71 71 71 71 72 72 67 70 72 72 72 73 72 72
65 66 70 76 75 73 73 71 71 72 72 72 71 71 72 73 73 72 72 72 73 73 72 71 71 71 70 68 69 70 71 71 72 72 69 68 68 72 72 72 72 72 71
63 63 70 76 75 75 74 72 71 70 71 71 70 71 72 72 72 72 72 72 73 72 72 71 71 70 69 69 70 71 71 71 71 69 69 69 69 69 71 71 71 71 71
61 61 74 75 76 75 74 73 72 70 70 71 71 70 71 72 72 72 72 72 73 72 72 71 71 70 69 70 70 70 71 71 70 69 69 69 69 70 71 70 71 71 70
60 69 72 75 75 75 75 74 72 71 70 72 70 71 71 72 72 72 72 72 72 72 72 71 70 70 70 69 69 69 70 71 66 67 68 69 69 70 70 70 70 69 69
63 67 69 75 76 75 75 74 73 72 70 72 70 70 72 72 72 72 72 72 72 72 72 71 70 69 69 68 68 68 69 70 66 66 67 67 70 70 70 69 69 69 68
64 68 70 72 74 75 75 74 73 73 71 72 71 72 72 73 73 72 72 72 72 72 72 71 70 69 68 67 66 66 68 69 65 66 65 67 69 69 69 69 68 68 67
65 67 69 70 71 71 72 74 73 73 73 72 72 73 73 73 73 73 72 72 72 72 71 71 70 68 68 66 65 65 68 68 65 65 66 67 69 68 68 67 66 65 65
65 65 68 67 69 70 70 72 73 73 73 73 72 73 73 70 71 71 71 72 71 71 71 71 69 69 68 66 65 66 68 63 64 64 65 68 67 66 66 65 64 64 64
65 66 67 68 68 69 69 71 70 71 71 71 69 69 70 67 69 69 70 71 71 71 71 70 70 68 67 63 62 65 61 62 63 63 64 67 66 64 64 63 63 63 62
64 65 65 68 69 69 69 70 70 71 70 70 69 69 68 67 66 66 69 69 69 71 70 69 69 66 64 61 57 57 57 61 60 61 65 67 65 65 64 62 62 62 62
62 65 65 67 68 68 69 69 70 69 70 69 69 68 68 68 67 67 69 67 68 69 68 68 68 66 62 60 57 56 53 59 59 60 64 66 65 65 64 63 63 63 62
58 63 65 65 66 67 67 67 68 69 68 68 68 69 69 67 66 67 66 67 67 67 67 68 67 66 65 59 54 53 52 56 58 60 62 66 67 65 64 63 62 62 61
48 61 64 65 65 65 65 64 63 62 65 65 68 68 67 67 67 66 66 66 66 67 67 67 66 65 64 57 58 58 55 56 57 59 61 64 65 65 64 63 61 61 61
43 54 58 63 64 63 62 64 65 66 66 65 66 65 65 65 65 64 64 64 66 66 65 68 66 64 63 59 58 59 56 56 56 58 61 62 64 64 65 62 62 62 63
43 48 54 58 63 63 62 65 65 65 66 66 65 67 66 66 64 64 62 62 65 65 66 65 65 62 61 60 59 59 60 57 55 58 61 61 62 61 63 64 62 62 62
43 43 54 57 60 63 61 66 65 65 65 65 64 66 65 65 65 64 63 64 65 65 65 65 64 62 60 60 59 60 60 59 59 62 62 61 61 61 60 63 64 63 61
43 47 56 57 58 60 62 65 65 64 64 63 63 63 64 64 63 63 63 62 65 64 64 64 63 62 61 59 59 59 60 61 61 61 62 63 62 61 60 59 60 61 61
44 46 53 56 55 59 60 64 63 62 62 62 63 63 64 63 62 62 62 61 64 63 63 63 62 60 60 59 57 57 58 59 59 59 60 61 61 61 59 58 60 59 61
42 46 52 54 54 54 55 56 61 61 61 61 63 63 63 63 62 61 61 60 62 63 63 62 60 59 58 59 56 56 54 56 57 58 59 59 58 58 59 57 58 57 57
42 47 50 53 54 55 54 56 57 57 59 59 60 61 61 62 63 62 61 60 61 61 60 61 59 57 57 58 58 56 51 50 54 57 57 58 59 59 58 57 55 58 57
46 51 52 54 54 55 56 55 56 56 56 58 58 59 60 61 62 61 61 59 61 62 60 60 60 58 58 56 58 57 55 55 52 52 56 57 59 59 59 56 56 56 56
51 52 53 55 56 57 56 55 56 55 56 57 59 59 59 59 61 61 60 58 61 62 61 61 60 59 57 57 56 55 55 55 54 51 51 53 56 58 58 52 52 51 54
55 56 56 56 57 57 56 55 55 55 55 55 56 57 59 59 60 60 60 60 61 61 60 61 60 59 58 58 58 56 55 53 52 51 50 52 53 55 56 52 52 52 51

GFSSE_sfc_dewp_171.txt.gz
Dewpoint
69 71 75 73 72 72 73 74 74 74 74 74 74 74 74 74 73 73 73 73 73 72 72 71 70 71 70 69 72 72 72 71 70 71 72 72 73 72 72 72 73 67 70
70 71 75 73 72 72 73 73 73 74 74 74 74 73 73 74 73 73 73 73 73 73 72 71 71 71 69 70 71 72 71 71 71 71 72 72 72 73 72 72 73 69 71
70 72 72 74 73 73 72 73 73 73 73 73 74 73 73 73 73 73 73 73 73 73 72 71 70 70 69 69 71 72 71 71 71 71 71 69 69 72 72 73 72 71 71
69 72 72 75 74 72 72 72 73 73 72 72 72 72 73 73 73 72 72 72 73 72 72 71 71 69 68 70 71 71 71 71 71 71 69 68 68 71 71 71 71 71 70
68 70 73 75 75 74 72 71 71 71 71 71 71 72 72 72 73 72 72 72 73 72 72 71 70 69 69 71 71 71 71 71 71 69 68 69 69 69 71 71 70 70 71
66 69 75 76 75 75 73 72 71 70 71 72 70 70 72 72 72 72 72 72 72 72 72 71 70 70 70 70 70 70 70 70 69 68 69 69 69 70 71 70 70 70 70
62 70 74 76 75 75 74 73 71 70 71 71 71 71 71 72 72 73 72 72 72 72 71 71 70 70 69 69 69 69 69 70 67 67 68 68 69 70 70 69 69 69 68
67 70 72 76 75 76 75 74 72 71 71 72 70 71 71 72 72 73 72 72 72 72 71 71 70 69 68 67 68 68 71 69 67 67 67 67 69 69 69 69 68 68 67
67 68 70 73 74 76 75 75 74 72 71 73 71 72 73 72 73 73 72 71 72 72 71 70 69 68 67 66 66 67 70 69 65 66 66 67 69 69 69 68 67 66 65
68 69 72 73 73 74 74 75 74 74 72 72 72 73 73 73 73 73 73 72 72 72 71 70 70 69 67 65 65 66 69 68 65 65 66 67 68 68 68 66 65 65 65
68 70 71 71 72 72 72 73 74 73 73 73 73 73 73 71 71 72 72 73 71 71 71 70 69 68 67 65 64 66 65 65 64 65 65 68 66 65 65 64 63 64 64
65 68 68 69 70 70 71 72 71 72 71 71 71 70 71 70 70 70 71 72 72 71 71 70 69 69 67 63 60 63 61 63 63 64 65 67 65 65 64 63 62 63 63
64 66 67 68 68 70 70 70 70 70 70 70 69 68 68 67 68 70 69 69 69 71 69 70 69 67 65 62 59 56 62 62 61 63 66 67 66 65 62 62 62 62 63
64 64 66 69 68 68 69 69 69 70 69 69 69 69 68 67 67 67 68 68 68 68 68 67 66 66 64 63 59 57 61 60 61 62 65 66 66 64 64 63 61 62 62
63 64 64 68 68 68 67 68 68 68 68 67 68 68 68 67 66 66 66 67 67 67 67 67 66 66 64 63 56 57 58 59 59 61 63 67 66 64 64 63 61 62 61
63 63 64 65 67 68 67 67 68 68 68 68 68 67 67 67 66 65 65 65 66 66 66 66 65 65 63 59 57 57 57 58 59 61 63 64 66 65 64 63 62 62 63
60 63 64 64 66 66 66 65 65 66 65 65 66 67 67 66 65 64 64 64 65 66 66 66 65 64 62 59 59 58 56 57 59 61 62 62 64 65 64 63 63 62 63
58 61 64 63 64 63 62 65 65 65 65 65 66 66 66 65 64 64 62 63 65 65 64 65 63 61 60 59 60 60 59 56 58 60 61 61 61 61 63 64 63 62 62
48 57 61 63 62 62 64 65 64 65 65 65 65 65 65 65 65 63 63 64 64 64 64 64 61 60 58 59 60 60 61 60 61 61 61 61 62 61 61 63 64 63 61
45 54 58 62 62 62 65 64 64 64 64 63 64 64 64 64 65 62 62 63 63 63 62 62 62 62 59 59 59 59 60 61 61 60 62 62 62 61 61 59 61 62 61
46 54 56 58 60 64 64 63 62 61 62 62 62 63 63 63 62 62 62 61 63 62 61 63 61 60 59 59 58 57 58 59 59 60 61 62 61 61 60 59 60 60 61
49 54 56 57 58 61 64 63 62 61 61 61 62 62 63 63 62 63 61 60 61 61 61 62 60 59 59 59 56 56 54 56 58 59 59 60 60 60 60 59 59 58 59
47 53 55 55 54 56 56 58 58 59 60 59 60 61 62 62 62 61 60 60 60 60 60 61 60 58 57 58 58 55 51 51 55 57 58 59 58 59 59 59 59 57 57
43 51 53 53 53 54 55 55 55 55 56 57 58 59 59 60 62 61 61 59 60 62 60 61 60 58 58 57 57 57 54 55 52 51 56 57 58 58 58 58 58 58 56
48 51 53 54 55 55 55 55 55 55 55 57 58 58 58 59 62 61 60 59 60 62 61 60 60 58 58 57 57 55 55 54 53 53 50 53 56 58 58 58 57 58 56
53 54 55 56 56 56 55 55 55 54 54 56 57 57 58 58 60 59 60 59 59 61 61 61 60 59 58 57 57 55 54 52 52 52 51 52 53 55 57 56 55 56 55